Weather History for LTBA - May, 2013

Change the Weather History Date:

Thursday, May 9, 2013

  Actual Average Record
Temperature  
Mean Temperature 62 °F -  
Max Temperature 65 °F 71 °F 84 °F (1997)
Min Temperature 59 °F 57 °F 44 °F (2008)
Degree Days  
Heating Degree Days 3    
Growing Degree Days 12 (Base 50)    
Moisture  
Dew Point 52 °F    
Average Humidity 72    
Maximum Humidity 82    
Minimum Humidity 54    
Precipitation  
Precipitation 0.00 in - - ()
Sea Level Pressure  
Sea Level Pressure 29.94 in    
Wind  
Wind Speed 9 mph ()    
Max Wind Speed 14 mph    
Max Gust Speed 18 mph    
Visibility 6.2 miles    
Events      
Averages and records for this station are not official NWS values.
T = Trace of Precipitation, MM = Missing Value Source: Averaged Metar Reports

Daily Weather History Graph

Daily Weather History Graph

Search for Another Location

Airport or City:

Trip Planner

Search our weather history database for the weather conditions in past years. The results will help you decide how hot, cold, wet, or windy it might be!

Date:

Astronomy

May. 09, 2013 Rise Set
Actual Time 5:53 AM EEST 8:09 PM EEST
Civil Twilight 5:22 AM EEST 8:40 PM EEST
Nautical Twilight 4:44 AM EEST 9:18 PM EEST
Astronomical Twilight 4:03 AM EEST 10:00 PM EEST
Moon 5:25 AM EEST (5/9) 7:46 PM EEST (5/9)
Length of Visible Light 15h 17m
Length of Day
14h 16m
Waning Crescent, 0% of the Moon is Illuminated
May 9
Waning Crescent
May 10
New
May 18
First Quarter
May 25
Full
May 31
Last Quarter

Hourly Weather History & Observations

Time (EEST) Temp. Dew Point Humidity Pressure Visibility Wind Dir Wind Speed Gust Speed Precip Events Conditions
12:20 AM 60.8 °F 51.8 °F 72% 29.98 in 6.2 mi NNE 13.8 mph - N/A   Scattered Clouds
12:50 AM 60.8 °F 51.8 °F 72% 29.98 in 6.2 mi NE 12.7 mph - N/A   Scattered Clouds
1:20 AM 60.8 °F 51.8 °F 72% 29.98 in 6.2 mi NE 10.4 mph - N/A   Scattered Clouds
1:50 AM 60.8 °F 51.8 °F 72% 29.95 in 6.2 mi NE 9.2 mph - N/A   Mostly Cloudy
2:20 AM 60.8 °F 51.8 °F 72% 29.95 in 6.2 mi NE 9.2 mph - N/A   Mostly Cloudy
2:50 AM 60.8 °F 51.8 °F 72% 29.95 in 6.2 mi NE 12.7 mph - N/A   Mostly Cloudy
3:00 AM 60 °F 51 °F 64% 29.95 in 6 mi NE 12.7 mph - -   Mostly Cloudy
3:20 AM 60.8 °F 51.8 °F 72% 29.92 in 6.2 mi NNE 10.4 mph - N/A   Mostly Cloudy
3:50 AM 60.8 °F 51.8 °F 72% 29.92 in 6.2 mi NNE 10.4 mph - N/A   Mostly Cloudy
4:20 AM 60.8 °F 51.8 °F 72% 29.92 in 6.2 mi NE 11.5 mph - N/A   Mostly Cloudy
4:50 AM 60.8 °F 51.8 °F 72% 29.92 in 6.2 mi NE 8.1 mph - N/A   Mostly Cloudy
5:20 AM 60.8 °F 51.8 °F 72% 29.92 in 6.2 mi NNE 8.1 mph - N/A   Mostly Cloudy
5:50 AM 60.8 °F 51.8 °F 72% 29.92 in 6.2 mi NE 8.1 mph - N/A   Mostly Cloudy
6:20 AM 60.8 °F 51.8 °F 72% 29.92 in 6.2 mi NE 9.2 mph - N/A   Mostly Cloudy
6:50 AM 62.6 °F 51.8 °F 68% 29.95 in 6.2 mi ENE 6.9 mph - N/A   Mostly Cloudy
7:20 AM 60.8 °F 51.8 °F 72% 29.92 in 6.2 mi NE 6.9 mph 18.4 mph N/A   Mostly Cloudy
7:50 AM 60.8 °F 51.8 °F 72% 29.95 in 6.2 mi NNE 5.8 mph - N/A   Mostly Cloudy
8:20 AM 62.6 °F 53.6 °F 72% 29.95 in 6.2 mi NE 5.8 mph - N/A   Mostly Cloudy
8:50 AM 64.4 °F 51.8 °F 64% 29.95 in 6.2 mi NE 5.8 mph - N/A   Mostly Cloudy
9:00 AM 64 °F 51 °F 54% 29.95 in 6 mi NE 5.8 mph - -   Mostly Cloudy
9:20 AM 64.4 °F 51.8 °F 64% 29.95 in 6.2 mi Variable 5.8 mph - N/A   Mostly Cloudy
9:50 AM 62.6 °F 53.6 °F 72% 29.95 in 6.2 mi North 8.1 mph - N/A   Mostly Cloudy
10:20 AM 62.6 °F 53.6 °F 72% 29.95 in 6.2 mi North 9.2 mph - N/A   Mostly Cloudy
10:50 AM 62.6 °F 53.6 °F 72% 29.95 in 6.2 mi NNE 8.1 mph - N/A   Mostly Cloudy
11:20 AM 62.6 °F 53.6 °F 72% 29.95 in 5.6 mi NNE 8.1 mph - N/A   Mostly Cloudy
11:50 AM 62.6 °F 51.8 °F 68% 29.95 in 6.2 mi Variable 6.9 mph - N/A   Mostly Cloudy
12:20 PM 64.4 °F 53.6 °F 68% 29.95 in 6.2 mi North 9.2 mph - N/A   Mostly Cloudy
12:50 PM 62.6 °F 53.6 °F 72% 29.95 in 6.2 mi Variable 3.5 mph - N/A   Mostly Cloudy
1:20 PM 64.4 °F 53.6 °F 68% 29.95 in 6.2 mi Variable 8.1 mph - N/A   Mostly Cloudy
1:50 PM 62.6 °F 53.6 °F 72% 29.95 in 6.2 mi North 11.5 mph - N/A   Mostly Cloudy
2:20 PM 62.6 °F 53.6 °F 72% 29.95 in 6.2 mi North 10.4 mph - N/A   Mostly Cloudy
2:50 PM 64.4 °F 53.6 °F 68% 29.95 in 6.2 mi North 9.2 mph - N/A   Mostly Cloudy
3:00 PM 64 °F 53 °F 59% 29.95 in 6 mi North 9.2 mph - -   Mostly Cloudy
3:20 PM 62.6 °F 53.6 °F 72% 29.95 in 6.2 mi North 10.4 mph - N/A   Mostly Cloudy
3:50 PM 62.6 °F 53.6 °F 72% 29.95 in 6.2 mi North 9.2 mph - N/A   Mostly Cloudy
4:20 PM 62.6 °F 53.6 °F 72% 29.92 in 6.2 mi Variable 8.1 mph - N/A   Mostly Cloudy
4:50 PM 60.8 °F 53.6 °F 77% 29.92 in 6.2 mi North 10.4 mph - N/A   Mostly Cloudy
5:20 PM 60.8 °F 53.6 °F 77% 29.92 in 6.2 mi North 10.4 mph - N/A   Mostly Cloudy
5:50 PM 60.8 °F 51.8 °F 72% 29.92 in 6.2 mi North 10.4 mph - N/A   Mostly Cloudy
6:20 PM 60.8 °F 53.6 °F 77% 29.92 in 6.2 mi North 11.5 mph - N/A   Mostly Cloudy
6:50 PM 60.8 °F 51.8 °F 72% 29.92 in 6.2 mi North 10.4 mph - N/A   Mostly Cloudy
7:20 PM 60.8 °F 51.8 °F 72% 29.92 in 6.2 mi NE 9.2 mph - N/A   Mostly Cloudy
7:50 PM 60.8 °F 51.8 °F 72% 29.95 in 6.2 mi NNE 10.4 mph - N/A   Mostly Cloudy
8:20 PM 60.8 °F 51.8 °F 72% 29.95 in 6.2 mi NNE 9.2 mph - N/A   Mostly Cloudy
8:50 PM 60.8 °F 51.8 °F 72% 29.95 in 6.2 mi NNE 9.2 mph - N/A   Mostly Cloudy
9:00 PM 60 °F 52 °F 67% 29.95 in 6 mi NNE 9.2 mph - -   Mostly Cloudy
9:20 PM 59.0 °F 51.8 °F 77% 29.95 in 6.2 mi North 10.4 mph - N/A   Mostly Cloudy
9:50 PM 59.0 °F 51.8 °F 77% 29.95 in 6.2 mi NNE 10.4 mph - N/A   Mostly Cloudy
10:20 PM 59.0 °F 51.8 °F 77% 29.95 in 6.2 mi North 13.8 mph - N/A   Mostly Cloudy
10:50 PM 59.0 °F 53.6 °F 82% 29.95 in 6.2 mi NNE 12.7 mph - N/A   Mostly Cloudy
11:20 PM 60.8 °F 53.6 °F 77% 29.95 in 6.2 mi NNE 11.5 mph - N/A   Mostly Cloudy
11:50 PM 59.0 °F 53.6 °F 82% 29.95 in 6.2 mi NNE 11.5 mph - N/A   Mostly Cloudy